This is the latest recevied weather packets stored in our database for station/object XE2B-20. If no packets are shown the sender has not sent any weather packets the latest 10 day(s).
| Time | Temp. | Humidity | Pressure | Rain* | Wind** | Luminosity | Snow |
|---|---|---|---|---|---|---|---|
| 1777541421 | 18.89° C | 19% | 803.2 hPa | - | - | - | - |
| 1777539924 | 20.56° C | 18% | 803.5 hPa | - | - | - | - |
| 1777538425 | 20.56° C | 18% | 803.5 hPa | - | - | - | - |
| 1777536928 | 21.11° C | 18% | 803.3 hPa | - | - | - | - |
| 1777535429 | 21.11° C | 18% | 803.5 hPa | - | - | - | - |
| 1777533933 | 23.33° C | 17% | 803.7 hPa | - | - | - | - |
| 1777532435 | 23.33° C | 17% | 803.7 hPa | - | - | - | - |
| 1777530944 | 23.33° C | 17% | 803.8 hPa | - | - | - | - |
| 1777529436 | 24.44° C | 17% | 804.2 hPa | - | - | - | - |
| 1777527937 | 25° C | 16% | 804.3 hPa | - | - | - | - |
| 1777526438 | 25° C | 16% | 804.4 hPa | - | - | - | - |
| 1777524938 | 23.89° C | 17% | 804.2 hPa | - | - | - | - |
| 1777523439 | 22.78° C | 18% | 803.9 hPa | - | - | - | - |
| 1777521942 | 25° C | 16% | 803.5 hPa | - | - | - | - |
| 1777520449 | 25° C | 17% | 803.5 hPa | - | - | - | - |
| 1777518944 | 23.89° C | 17% | 803.3 hPa | - | - | - | - |
| 1777517446 | 25.56° C | 17% | 803 hPa | - | - | - | - |
| 1777515949 | 26.11° C | 16% | 802.8 hPa | - | - | - | - |
| 1777514455 | 26.67° C | 16% | 802.6 hPa | - | - | - | - |
| 1777512952 | 27.22° C | 16% | 802.6 hPa | - | - | - | - |
| 1777511453 | 28.89° C | 16% | 802.5 hPa | - | - | - | - |
| 1777509955 | 30.56° C | 15% | 802.3 hPa | - | - | - | - |
| 1777508456 | 33.33° C | 14% | 802.3 hPa | - | - | - | - |
| 1777506964 | 33.89° C | 14% | 802.3 hPa | - | - | - | - |
| 1777505460 | 35° C | 14% | 802.3 hPa | - | - | - | - |
* Rain since midnight (hover to see other rain measurements)
** Current wind speed in m/s (hover to see current wind gust speed)